This is the latest recevied weather packets stored in our database for station/object F1ZVN-13. If no packets are shown the sender has not sent any weather packets the latest 10 day(s).
| Time | Temp. | Humidity | Pressure | Rain* | Wind** | Luminosity | Snow |
|---|---|---|---|---|---|---|---|
| 1787719901 | 13.89° C | 67% | 1012.9 hPa | 0 mm | 0 m/s | - | - |
| 1787719781 | 13.89° C | 64% | 1012.9 hPa | 0 mm | 0 m/s | - | - |
| 1787719658 | 13.89° C | 67% | 1012.9 hPa | 0 mm | 0 m/s | - | - |
| 1787719416 | 13.89° C | 63% | 1012.7 hPa | 0 mm | 0 m/s | - | - |
| 1787719176 | 13.89° C | 66% | 1012.8 hPa | 0 mm | 0 m/s | - | - |
| 1787719053 | 13.89° C | 64% | 1012.8 hPa | 0 mm | 0 m/s | - | - |
| 1787718938 | 13.89° C | 66% | 1012.8 hPa | 0 mm | 0 m/s | - | - |
| 1787718814 | 13.89° C | 64% | 1012.9 hPa | 0 mm | 0 m/s | - | - |
| 1787718690 | 13.89° C | 66% | 1012.8 hPa | 0 mm | 0 m/s | - | - |
| 1787718568 | 13.89° C | 65% | 1012.7 hPa | 0 mm | 0 m/s | - | - |
| 1787718446 | 13.89° C | 64% | 1012.8 hPa | 0 mm | 0 m/s | - | - |
| 1787718337 | 13.89° C | 64% | 1012.8 hPa | 0 mm | 0 m/s | - | - |
| 1787718205 | 14.44° C | 65% | 1012.7 hPa | 0 mm | 0 m/s | - | - |
| 1787718085 | 14.44° C | 66% | 1012.8 hPa | 0 mm | 0 m/s | - | - |
| 1787717964 | 14.44° C | 63% | 1012.8 hPa | 0 mm | 0 m/s | - | - |
| 1787717841 | 14.44° C | 66% | 1012.7 hPa | 0 mm | 0 m/s | - | - |
| 1787717721 | 14.44° C | 66% | 1012.8 hPa | 0 mm | 0 m/s | - | - |
| 1787717613 | 14.44° C | 66% | 1012.8 hPa | 0 mm | 0 m/s | - | - |
| 1787717479 | 14.44° C | 67% | 1012.8 hPa | 0 mm | 0 m/s | - | - |
| 1787717362 | 14.44° C | 65% | 1012.8 hPa | 0 mm | 0 m/s | - | - |
| 1787717236 | 14.44° C | 65% | 1012.9 hPa | 0 mm | 0 m/s | - | - |
| 1787717114 | 14.44° C | 62% | 1013 hPa | 0 mm | 0 m/s | - | - |
| 1787716991 | 14.44° C | 66% | 1012.9 hPa | 0 mm | 0 m/s | - | - |
| 1787716871 | 14.44° C | 65% | 1012.8 hPa | 0 mm | 0 m/s | - | - |
| 1787716749 | 14.44° C | 66% | 1012.9 hPa | 0 mm | 0 m/s | - | - |
* Rain latest hour (hover to see other rain measurements)
** Current wind speed in m/s (hover to see current wind gust speed)